Change the Weather History Date:

Saturday, April 5, 2014

  Actual Average Record
Temperature  
Mean Temperature 39 °F 41 °F  
Max Temperature 44 °F 52 °F 62 °F (2011)
Min Temperature 34 °F 30 °F 21 °F (2001)
Degree Days  
Heating Degree Days 26 24  
Month to date heating degree days 121 123  
Since 1 July heating degree days 6527 6358  
Cooling Degree Days 0 0  
Month to date cooling degree days 0 0  
Year to date cooling degree days 0 0  
Moisture  
Dew Point 30 °F    
Average Humidity 72    
Maximum Humidity 92    
Minimum Humidity 52    
Precipitation  
Precipitation 0.02 in 0.13 in 0.33 in (2003)
Month to date precipitation 0.21 0.64  
Year to date precipitation 8.22 8.78  
Sea Level Pressure  
Sea Level Pressure 29.80 in    
Wind  
Wind Speed 10 mph (West)    
Max Wind Speed 25 mph    
Max Gust Speed 38 mph    
Visibility 10 miles    
Events Rain    
T = Trace of Precipitation, MM = Missing Value Source: NWS Daily Summary

Daily Weather History Graph

Daily Weather History Graph

Search for Another Location

Airport or City:

Trip Planner

Search our weather history database for the weather conditions in past years. The results will help you decide how hot, cold, wet, or windy it might be!

Date:

Astronomy

Apr. 05, 2014 Rise Set
Actual Time 6:28 AM EDT 7:23 PM EDT
Civil Twilight 5:59 AM EDT 7:52 PM EDT
Nautical Twilight 5:25 AM EDT 8:27 PM EDT
Astronomical Twilight 4:49 AM EDT 9:02 PM EDT
Moon 10:28 AM EDT (4/5) 12:36 AM EDT (4/5)
Length of Visible Light 13h 53m
Length of Day
12h 55m
Waxing Crescent, 34% of the Moon is Illuminated
Apr 5
Waxing Crescent
Apr 7
First Quarter
Apr 15
Full
Apr 22
Last Quarter
Apr 29
New

Hourly Weather History & Observations

Time (EDT) Temp. Windchill Dew Point Humidity Pressure Visibility Wind Dir Wind Speed Gust Speed Precip Events Conditions
12:54 AM 37.9 °F 32.7 °F 33.1 °F 83% 29.77 in 10.0 mi ENE 6.9 mph - 0.02 in Rain Light Rain
1:54 AM 37.9 °F 33.5 °F 33.1 °F 83% 29.75 in 10.0 mi East 5.8 mph - 0.01 in   Overcast
2:54 AM 39.0 °F 33.4 °F 33.1 °F 79% 29.73 in 10.0 mi ESE 8.1 mph - N/A   Overcast
3:54 AM 39.0 °F 31.8 °F 33.1 °F 79% 29.71 in 10.0 mi ESE 11.5 mph - N/A   Overcast
4:54 AM 37.9 °F 34.4 °F 35.1 °F 89% 29.70 in 10.0 mi Variable 4.6 mph - N/A   Overcast
5:54 AM 39.9 °F - 35.1 °F 83% 29.69 in 10.0 mi Calm Calm - N/A   Overcast
6:54 AM 39.0 °F - 35.1 °F 86% 29.71 in 10.0 mi Calm Calm - N/A   Overcast
7:34 AM 37.9 °F 32.1 °F 34.0 °F 86% 29.72 in 10.0 mi WNW 8.1 mph - N/A   Overcast
7:46 AM 37.0 °F 31.6 °F 34.0 °F 89% 29.73 in 10.0 mi Variable 6.9 mph - N/A   Overcast
7:54 AM 37.0 °F - 35.1 °F 93% 29.75 in 10.0 mi Calm Calm - N/A   Overcast
8:47 AM 37.9 °F 32.1 °F 36.0 °F 93% 29.74 in 9.0 mi SSW 8.1 mph - 0.01 in   Overcast
8:54 AM 39.0 °F 34.8 °F 36.0 °F 89% 29.75 in 10.0 mi SSW 5.8 mph - 0.01 in   Overcast
9:54 AM 41.0 °F 39.0 °F 35.1 °F 79% 29.76 in 10.0 mi West 3.5 mph - N/A   Overcast
10:54 AM 42.1 °F 37.1 °F 34.0 °F 73% 29.76 in 10.0 mi West 8.1 mph - N/A   Overcast
11:54 AM 42.1 °F 33.9 °F 32.0 °F 67% 29.75 in 10.0 mi West 17.3 mph 27.6 mph N/A   Overcast
12:03 PM 42.1 °F 35.7 °F 30.9 °F 65% 29.74 in 10.0 mi WNW 11.5 mph 31.1 mph N/A   Overcast
12:14 PM 42.1 °F 34.5 °F 30.0 °F 62% 29.75 in 10.0 mi West 15.0 mph 20.7 mph N/A   Overcast
12:21 PM 42.1 °F 37.7 °F 30.9 °F 65% 29.75 in 10.0 mi West 6.9 mph 20.7 mph N/A   Overcast
12:34 PM 41.0 °F 34.7 °F 32.0 °F 70% 29.75 in 10.0 mi SW 10.4 mph - N/A   Overcast
12:45 PM 42.1 °F 37.7 °F 32.0 °F 67% 29.75 in 10.0 mi Variable 6.9 mph 18.4 mph N/A   Overcast
12:54 PM 42.1 °F 36.1 °F 32.0 °F 67% 29.77 in 10.0 mi West 10.4 mph - N/A   Overcast
1:54 PM 43.0 °F 37.7 °F 27.0 °F 53% 29.77 in 10.0 mi WNW 9.2 mph - N/A   Overcast
2:54 PM 39.9 °F 31.4 °F 25.0 °F 55% 29.81 in 10.0 mi West 16.1 mph 38.0 mph N/A   Overcast
3:54 PM 39.9 °F 31.1 °F 26.1 °F 58% 29.83 in 10.0 mi West 17.3 mph 34.5 mph N/A   Mostly Cloudy
4:54 PM 37.9 °F 28.9 °F 24.1 °F 57% 29.86 in 10.0 mi West 16.1 mph 33.4 mph N/A   Overcast
5:54 PM 37.0 °F 26.7 °F 21.9 °F 54% 29.90 in 10.0 mi WNW 19.6 mph 34.5 mph N/A   Overcast
6:54 PM 36.0 °F 26.7 °F 23.0 °F 59% 29.91 in 10.0 mi West 15.0 mph 21.9 mph N/A   Overcast
7:54 PM 36.0 °F 27.1 °F 21.9 °F 57% 29.94 in 10.0 mi West 13.8 mph 24.2 mph N/A   Overcast
8:54 PM 35.1 °F 27.4 °F 21.9 °F 59% 29.98 in 10.0 mi WNW 10.4 mph - N/A   Overcast
9:54 PM 35.1 °F 27.4 °F 21.0 °F 57% 29.99 in 10.0 mi West 10.4 mph 24.2 mph N/A   Overcast
10:54 PM 34.0 °F 28.8 °F 21.0 °F 59% 30.00 in 10.0 mi WNW 5.8 mph 17.3 mph N/A   Overcast
11:54 PM 34.0 °F 25.5 °F 21.0 °F 59% 30.01 in 10.0 mi WNW 11.5 mph 17.3 mph N/A   Overcast